Printer-friendly version

IAU Minor Planet Center

Minor Planet Center

MPEC 2000-S39: 2000 SC8

The following Minor Planet Electronic Circular may be linked-to from your own Web pages, but must not otherwise be redistributed electronically.


Read MPEC 2000-S38 Read MPEC 2000-S40


M.P.E.C. 2000-S39                                Issued 2000 Sept. 24, 21:19 UT

     The Minor Planet Electronic Circulars contain information on unusual
         minor planets and routine data on comets.  They are published
   on behalf of Commission 20 of the International Astronomical Union by the
          Minor Planet Center, Smithsonian Astrophysical Observatory,
                          Cambridge, MA 02138, U.S.A.

             Prepared using the Tamkin Foundation Computer Network

                              MPC@CFA.HARVARD.EDU
          URL http://cfa-www.harvard.edu/iau/mpc.html  ISSN 1523-6714

                                   2000 SC8

Observations:
     K00S08C* C2000 09 20.41424 04 07 27.85 -17 42 28.7          17.7        704
     K00S08C  C2000 09 20.42924 04 07 28.50 -17 42 54.6          18.2        704
     K00S08C  C2000 09 20.44448 04 07 29.10 -17 43 21.0          18.3        704
     K00S08C  C2000 09 20.45964 04 07 29.90 -17 43 47.1          19.0        704
     K00S08C  C2000 09 20.47465 04 07 30.54 -17 44 14.3          18.5        704
     K00S08C  C2000 09 21.26211 04 08 06.77 -18 07 29.6          17.2 V      860
     K00S08C  C2000 09 21.27780 04 08 07.46 -18 07 56.7          16.9 V      860
     K00S08C  C2000 09 21.28565 04 08 07.84 -18 08 11.2          17.1 V      860
     K00S08C  C2000 09 21.32505 04 08 09.66 -18 09 22.4          17.9 V      860
     K00S08C  C2000 09 21.32884 04 08 09.81 -18 09 28.2          17.6 V      860
     K00S08C  C2000 09 21.33262 04 08 09.90 -18 09 34.5          18.0 V      860
     K00S08C  C2000 09 21.40679 04 08 13.48 -18 11 51.5          17.2        704
     K00S08C  C2000 09 21.41373 04 08 13.77 -18 12 03.9          16.9        704
     K00S08C  C2000 09 21.42160 04 08 14.14 -18 12 18.5          17.5        704
     K00S08C  C2000 09 21.42846 04 08 14.38 -18 12 30.2          16.0        704
     K00S08C  C2000 09 21.43606 04 08 14.73 -18 12 43.7          17.7        704
     K00S08C  C2000 09 21.44319 04 08 15.03 -18 12 56.6          15.7        704
     K00S08C  C2000 09 21.45791 04 08 15.71 -18 13 22.7          16.1        704
     K00S08C  C2000 09 21.47263 04 08 16.29 -18 13 49.1          15.9        704
     K00S08C  C2000 09 22.29792 04 08 53.20 -18 38 21.8                      808
     K00S08C  C2000 09 22.31503 04 08 53.87 -18 38 53.9          17.5 V      860
     K00S08C  C2000 09 22.31597 04 08 53.96 -18 38 54.8                      808
     K00S08C  C2000 09 22.31880 04 08 54.00 -18 39 01.4          17.9 V      860
     K00S08C  C2000 09 22.32252 04 08 54.14 -18 39 07.3          17.7 V      860
     K00S08C  C2000 09 22.32626 04 08 54.36 -18 39 14.4          17.5 V      860
     K00S08C  C2000 09 22.66603 04 09 09.34 -18 49 25.4          17.7 R      428
     K00S08C  C2000 09 22.67061 04 09 09.53 -18 49 33.2          17.5 R      428
     K00S08C  C2000 09 22.67510 04 09 09.78 -18 49 42.0          17.6 R      428
     K00S08C  C2000 09 23.39730 04 09 40.71 -19 11 32.7          17.2        704
     K00S08C  C2000 09 23.41204 04 09 41.34 -19 11 59.1          17.5        704
     K00S08C  C2000 09 23.42753 04 09 41.94 -19 12 27.4          16.9        704
     K00S08C  C2000 09 24.25281 04 10 16.36 -19 37 24.7          17.7 V      860
     K00S08C  C2000 09 24.26052 04 10 16.72 -19 37 38.5          18.0 V      860
     K00S08C  C2000 09 24.27256 04 10 17.16 -19 38 00.4          18.3 V      860
     K00S08C  C2000 09 24.27640 04 10 17.27 -19 38 07.7          18.1 V      860
     K00S08C  C2000 09 24.28024 04 10 17.42 -19 38 14.0          18.1 V      860
     K00S08C  C2000 09 24.28409 04 10 17.52 -19 38 20.7          18.4 V      860

Observer details:
428 Reedy Creek.  Observer J. Broughton.  0.25-m f/6.3 Schmidt-Cassegrain
    + CCD.
704 Lincoln Laboratory ETS, New Mexico.  Observers M. Blythe, F. Shelly,
    M. Bezpalko, M. Elowitz, R. Huber, L. Manguso.  Measurers J. Stuart,
    R. Sayer, J. B. Evans, H. Viggh.  1.0-m f/2.15 reflector + CCD.
808 El Leoncito.  Observers C. E. Lopez, H. S. Lepez.   0.5-m f/7.5 double
    astrograph + CCD.
860 Valinhos.  Observer P. R. Holvorcem.  0.36-m f/3.6 Schmidt-Cassegrain
    + CCD.

Orbital elements:
2000 SC8
Epoch 2000 Sept. 13.0 TT = JDT 2451800.5                Spahr
M 321.93453              (2000.0)            P               Q
n   0.21631097     Peri.  282.47520     -0.24686623     -0.96845157
a   2.7484237      Node   182.67130     +0.88566839     -0.23974006
e   0.3088964      Incl.   46.91539     -0.39325383     +0.06801661
P   4.56           H   14.0           G   0.15
From 37 observations 2000 Sept. 20-24.

Ephemeris:
2000 SC8                 a,e,i = 2.75, 0.31, 47                  q = 1.8994
Date    TT    R. A. (2000) Decl.     Delta      r     Elong.  Phase     V
2000 09 23    04 09.39   -18 59.5    1.559    2.195   116.2    24.2    17.8
2000 10 03    04 15.24   -24 10.0    1.484    2.165   120.0    23.6    17.6
2000 10 13    04 18.19   -29 28.1    1.432    2.136   122.1    23.3    17.5
2000 10 23    04 17.88   -34 35.1    1.401    2.108   122.3    23.5    17.5
2000 11 02    04 14.19   -39 10.8    1.391    2.081   120.8    24.2    17.4
2000 11 12    04 07.49   -42 56.9    1.397    2.056   117.9    25.2    17.5
2000 11 22    03 58.72   -45 41.8    1.417    2.032   114.1    26.3    17.5
2000 12 02    03 49.36   -47 20.1    1.446    2.009   110.0    27.5    17.5
2000 12 12    03 41.16   -47 54.4    1.481    1.989   105.8    28.5    17.6
2000 12 22    03 35.56   -47 31.9    1.518    1.970   101.8    29.3    17.7
2001 01 01    03 33.49   -46 21.9    1.555    1.953    98.1    29.9    17.7
2001 01 11    03 35.32   -44 34.0    1.591    1.938    94.8    30.4    17.8
2001 01 21    03 40.95   -42 16.3    1.625    1.926    91.8    30.7    17.8
2001 01 31    03 50.09   -39 35.2    1.657    1.916    89.2    30.9    17.8
2001 02 10    04 02.32   -36 36.4    1.688    1.908    86.8    31.1    17.9
2001 02 20    04 17.19   -33 24.2    1.719    1.903    84.7    31.2    17.9
2001 03 02    04 34.34   -30 02.8    1.753    1.900    82.7    31.2    17.9
2001 03 12    04 53.40   -26 36.6    1.789    1.900    80.6    31.1    18.0
2001 03 22    05 14.00   -23 09.8    1.831    1.902    78.5    30.9    18.0
2001 04 01    05 35.86   -19 47.1    1.880    1.907    76.2    30.6    18.1
2001 04 11    05 58.67   -16 33.0    1.937    1.914    73.6    30.2    18.2

Timothy B. Spahr             (C) Copyright 2000 MPC           M.P.E.C. 2000-S39

Read MPEC 2000-S38 Read MPEC 2000-S40


Our Web policy. Index to the CBAT/MPC/ICQ pages.


Valid HTML 4.01!